Regional Weather Roundup
Issued by NWS

Home | Current Version | Previous Version | Text Only | Print | Product List | Glossary On
Versions: 1 2 3 4 5 6 7 8 9 10 11 12 13 14 15 16 17 18 19 20 21 22 23 24 25 26 27 28 29 30 31 32 33 34 35 36 37 38 39 40 41 42 43 44 45 46 47 48 49 50
000
ASUS44 KOUN 041410
RWROK

WEATHER ROUNDUP FOR OKLAHOMA
NATIONAL WEATHER SERVICE NORMAN OK
900 AM CDT MON MAY 04 2015

NOTE: "FAIR" INDICATES FEW OR NO CLOUDS BELOW 12,000 FEET WITH NO
      SIGNIFICANT WEATHER AND/OR OBSTRUCTIONS TO VISIBILITY.

OKZ001>007-009>012-014-015-017-041500-
NORTHWEST OKLAHOMA AND THE PANHANDLE

CITY           SKY/WX    TMP DP  RH WIND       PRES   REMARKS
GAGE           MOSUNNY   64  59  83 S10       30.00R
GUYMON         CLOUDY    63  55  75 S7        30.01R
ENID/WOODRING  PTSUNNY   66  61  82 SE12      30.01R
$$

OKZ016-021>023-033>039-044-045-041500-
SOUTHWEST OKLAHOMA

CITY           SKY/WX    TMP DP  RH WIND       PRES   REMARKS
LAWTON/REGL    SUNNY     67  61  81 S10       30.06R
LAWTON/FT SILL SUNNY     66  62  86 S10       30.04R
FREDERICK      SUNNY     67  60  78 S10       30.01R
CLINTON        SUNNY     65  57  75 S16       30.03R
HOBART         SUNNY     67  60  78 S16G24    30.02R
ALTUS AFB      SUNNY     66  62  85 S14       30.02R
$$

OKZ018>020-024>031-041500-
CENTRAL OKLAHOMA

CITY           SKY/WX    TMP DP  RH WIND       PRES   REMARKS
OKLAHOMA CITY  PTSUNNY   67  60  78 S17       30.05R
OKC/WILEY POST PTSUNNY   67  60  78 S18       30.04R
STILLWATER     PTSUNNY   67  58  72 S12       30.04R
GUTHRIE        MOSUNNY   69  60  73 S13G23    30.04R
$$

OKZ008-013-054>072-041500-
NORTHEAST OKLAHOMA

CITY           SKY/WX    TMP DP  RH WIND       PRES   REMARKS
TULSA          PTSUNNY   69  59  70 S14G24    30.05R
TULSA/JONES    PTSUNNY   68  59  73 S9        30.07R
PONCA CITY     CLOUDY    69  59  70 S9G17     30.03R
BARTLESVILLE   SUNNY     69  59  70 VRB6      30.06R
MUSKOGEE       CLOUDY    67  61  81 S8        30.10R
$$

OKZ032-040>043-046>053-073>077-041500-
SOUTH CENTRAL/SOUTHEAST OKLAHOMA

CITY           SKY/WX    TMP DP  RH WIND       PRES   REMARKS
ARDMORE/DWNTWN CLOUDY    68  61  77 S9        30.09R
MCALESTER      PTSUNNY   70  62  76 S6        30.10R
$$




USA.gov is the U.S. government's official web portal to all federal, state and local government web resources and services.